Voltar ao catálogo

STARLINK-32319

AtivoComunicaçõesVLEO
NORAD 61528·PAYLOAD·🇺🇸 United States

Lançado Oct 15, 2024 de Cape Canaveral Space Force Station

Loading…

Próximas Passagens (próximas 24 horas)

TLE

AtualizadoSource: CelesTrak SupGP

Época: Sep 15, 2026, 03:10 UTC

1 61528C 24183V   26258.13243056  .00066544  00000+0  21395-2 0  2581
2 61528  53.1595 341.8687 0001098  86.7785 351.1589 15.31674863    15

Acompanhe STARLINK-32319 em tempo real com AllMySat

Download on the App Store